Flag for Germany Weather past 2 weeks in Mosbach, Baden-Württemberg, Germany

Now
38 °F

Overcast.


Feels Like: 33 °F
Forecast: 35 / 39 °F
Wind: 7 mph from West

Location: Oehringen

Current Time: Dec 25, 2014 at 11:05:09 AM

Latest Report: Dec 25, 2014 at 10:00 AM


Visibility: 31 mi

Pressure: 30.30 "Hg

Humidity: 78%

Dew point: 32 °F

Location of MosbachLocation

Historic Weather in Mosbach — Graph

°F

Mosbach temperature yesterday

Maximum temperature yesterday: 49 °F (at 5:00 PM)
Minimum temperature yesterday: 34 °F (at 3:00 AM)
Average temperature yesterday: 43 °F

Past Weeks' High & Low Weather Summary

 TemperatureHumidityPressure
High53 °F (Dec 18, 8:00 PM)100% (Dec 15, 4:00 AM)30.54 "Hg (Dec 15, 4:00 AM)
Low34 °F (Dec 17, 8:00 AM)57% (Dec 13, 10:00 AM)29.72 "Hg (Dec 12, 6:00 PM)
Average44 °F84%30.10 "Hg
* Reported Dec 10 10:00 AM — Dec 25 10:00 AM, Mosbach, Weather by CustomWeather, © 2014

Note: Actual official high and low records may vary slightly from our data, if they occured in-between our weather recording intervals... More about our weather records

Advertising

Mosbach weather history for previous 24 hours

 ConditionsComfort  
Time TempWeatherWind HumidityBarometerVisibility
10:00 AM
Dec 25
38 °FOvercast.7 mph78%30.30 "Hg31 mi
9:00 AM37 °FOvercast.3 mph86%30.30 "Hg25 mi
8:00 AM38 °FOvercast.6 mph84%30.28 "Hg25 mi
7:00 AM38 °FOvercast.6 mph89%30.27 "Hg19 mi
6:00 AM41 °FLight freezing rain. Overcast.5 mph93%30.23 "Hg6 mi
5:00 AM41 °FDrizzle. Low clouds.3 mph94%30.22 "Hg7 mi
4:00 AM43 °FLight rain. Overcast.6 mph95%30.19 "Hg5 mi
3:00 AM46 °FOvercast.7 mph89%30.17 "Hg19 mi
2:00 AM46 °FDrizzle. Overcast.6 mph92%30.17 "Hg9 mi
1:00 AM45 °FDrizzle. Overcast.6 mph95%30.17 "Hg9 mi
12:00 AM46 °FOvercast.8 mph87%30.16 "Hg22 mi
11:00 PM
Dec 24
46 °FLight freezing rain. Overcast.8 mph86%30.16 "Hg5 mi
10:00 PM48 °FOvercast.7 mph76%30.16 "Hg25 mi
9:00 PM48 °FOvercast.8 mph72%30.16 "Hg22 mi
8:00 PM48 °FOvercast.6 mph69%30.15 "Hg22 mi
7:00 PM47 °FOvercast.8 mph70%30.16 "Hg22 mi
6:00 PM47 °FOvercast.6 mph74%30.15 "Hg17 mi
5:00 PM49 °FOvercast.7 mph70%30.14 "Hg25 mi
4:00 PM48 °FOvercast.8 mph71%30.15 "Hg25 mi
3:00 PM48 °FOvercast.8 mph68%30.15 "Hg25 mi
2:00 PM48 °FOvercast.8 mph68%30.16 "Hg31 mi
1:00 PM48 °FOvercast.6 mph66%30.17 "Hg31 mi
12:00 PM47 °FOvercast.8 mph69%30.19 "Hg34 mi
11:00 AM44 °FOvercast.6 mph71%30.21 "Hg22 mi
Weather by CustomWeather, © 2014

See weather overviewHow to use our weather pages